Regional Weather Roundup
Issued by NWS

Home | Current Version | Previous Version | Graphics & Text | Print | Product List | Glossary On
Versions: 1 2 3 4 5 6 7 8 9 10 11 12 13 14 15 16 17 18 19 20 21 22 23 24 25 26 27 28 29 30 31 32 33 34 35 36 37 38 39 40 41 42 43 44 45 46 47 48 49 50
000
ASUS45 KSLC 130410
RWRUT

UTAH REGIONAL WEATHER ROUNDUP
NATIONAL WEATHER SERVICE SALT LAKE CITY UT
900 PM MST FRI FEB 12 2016

UTZ001>011-023>025-130500-

NORTHERN UTAH

CITY           SKY/WX    TMP DP  RH WIND       PRES   REMARKS
BRIGHAM CITY   CLOUDY    26  24  93 CALM      30.36S
HILL AFB       FOG       27  27  98 N1        30.32S VSB 1
LOGAN          FOG       23  23 100 CALM      30.34S VSB 1/4
OGDEN          FOG       26  26 100 NW5       30.32F VSB 1   WCI  20
PROVO AIRPORT    N/A     16  12  86 CALM      30.32F VSB<1/4
SALT LAKE CITY CLOUDY    30  28  92 CALM      30.33S FOG
VERNAL         CLOUDY    24  19  81 W5        30.34S HAZE    WCI  18
WENDOVER       CLOUDY    30  25  80 E5        30.34S WCI  25
HEBER CITY     PTCLDY    23  18  80 CALM      30.27S
WEST JORDAN    CLOUDY    28  28 100 CALM      30.32F

$$

UTZ012>022-026-027-130500-

SOUTHERN/CENTRAL UTAH

CITY           SKY/WX    TMP DP  RH WIND       PRES   REMARKS
BLANDING       CLEAR     35  27  70 CALM      30.41S
BRYCE CANYON   PTCLDY    22  17  81 W8        30.38S WCI  12
CEDAR CITY     MOCLDY    31  25  78 W5        30.28R WCI  26
DELTA          CLOUDY    18  17  95 CALM      30.33S VSB<1/4
HANKSVILLE     MOCLDY    36  32  87 CALM      30.35S
MILFORD        CLOUDY    13  11  92 NW5       30.30S FOG     WCI   5
MOAB/CYNLANDS  MOCLDY    33  29  85 SW6       30.31S WCI  28
PRICE          MOCLDY    32  24  72 NE10      30.32F WCI  24
ST GEORGE      PTCLDY    54  27  35 CALM      30.21R
KANAB          CLEAR     46  32  57 N12       30.31S

$$

REGIONAL REPORTS     COLORADO/ARIZONA

CITY           SKY/WX    TMP DP  RH WIND       PRES   REMARKS
CRAIG, CO      CLOUDY    17  14  88 CALM      30.34R
GRAND JUNCTION CLOUDY    32  28  85 E3        30.33S
RIFLE          CLOUDY    33  22  63 CALM      30.34S
MONTROSE       CLOUDY    34  26  72 S5        30.37R WCI  30
CORTEZ         CLOUDY    30  24  78 E6        30.36R WCI  24
PAGE, AZ       CLEAR     46  31  55 CALM      30.29R
GRAND CANYON   CLEAR     32  24  72 CALM      30.35R
KINGMAN        CLEAR     44  25  47 SE3       30.20R
FLAGSTAFF      CLEAR     32  19  58 CALM      30.37S

$$

REGIONAL REPORTS    NEVADA/IDAHO/WYOMING

CITY           SKY/WX    TMP DP  RH WIND       PRES   REMARKS
LAS VEGAS, NV  PTCLDY    62  25  24 SW6       30.12R
ELY            MOCLDY    29  22  75 S7        30.30S WCI  22
ELKO           CLOUDY    26  20  77 NE5       30.30S WCI  20
POCATELLO, ID  CLOUDY    30  25  81 N7        30.27S WCI  23
BURLEY         MOCLDY    31  29  92 N3        30.22S
EVANSTON, WY   CLOUDY    37  13  37 CALM      30.29S
ROCK SPRINGS   CLOUDY    37  19  48 SW13      30.27S WCI  29
KEMMERER       CLOUDY    32  18  55 CALM      30.28F

$$



USA.gov is the U.S. government's official web portal to all federal, state and local government web resources and services.